Flag for Japan Weather past 2 weeks in Nagoya, Japan

Now
84 °F

Passing clouds.


Feels Like: 92 °F
Forecast: 78 / 94 °F
Wind: 12 mph from Southeast

Location: Nagoya Airport

Current Time: Aug 5, 2015 at 7:39:01 PM

Latest Report: Aug 5, 2015 at 7:00 PM


Visibility: N/A

Pressure: 29.83 "Hg

Humidity: 74%

Dew point: 75 °F

Location of NagoyaLocation

Historic Weather in Nagoya — Graph

°F

Nagoya temperature yesterday

Maximum temperature yesterday: 90 °F (at 3:30 PM)
Minimum temperature yesterday: 81 °F (at 1:30 AM)
Average temperature yesterday: 84 °F

Past Weeks' High & Low Weather Summary

 TemperatureHumidityPressure
High93 °F (Jul 29, 3:00 PM)94% (Jul 22, 6:30 PM)29.92 "Hg (Jul 22, 6:30 PM)
Low75 °F (Jul 24, 3:00 AM)49% (Jul 27, 1:30 PM)29.68 "Hg (Jul 27, 3:30 PM)
Average83 °F77%29.82 "Hg
* Reported Jul 21 6:00 PM — Aug 5 6:30 PM, Nagoya, Weather by CustomWeather, © 2015

Note: Actual official high and low records may vary slightly from our data, if they occured in-between our weather recording intervals... More about our weather records

Advertising

Nagoya weather history for previous 24 hours

 ConditionsComfort  
Time TempWeatherWind HumidityBarometerVisibility
6:30 PM
Wed, Aug 5
84 °FPartly sunny.12 mph74%29.83 "HgN/A
6:00 PM84 °FPartly sunny.13 mph74%29.83 "HgN/A
5:30 PM86 °FPartly sunny.15 mph66%29.83 "HgN/A
5:00 PM86 °FScattered clouds.10 mph70%29.80 "HgN/A
4:30 PM86 °FPassing clouds.15 mph75%29.80 "HgN/A
4:00 PM86 °FPassing clouds.15 mph75%29.80 "HgN/A
3:30 PM88 °FPassing clouds.14 mph70%29.80 "HgN/A
3:00 PM88 °FPassing clouds.16 mph70%29.80 "HgN/A
2:30 PM88 °FPassing clouds.16 mph70%29.80 "HgN/A
2:00 PM88 °FPassing clouds.14 mph70%29.83 "HgN/A
1:30 PM86 °FPassing clouds.12 mph75%29.83 "HgN/A
1:00 PM88 °FPassing clouds.9 mph66%29.83 "HgN/A
12:30 PM88 °FPassing clouds.7 mph70%29.83 "HgN/A
12:00 PM86 °FPassing clouds.6 mph75%29.83 "HgN/A
11:30 AM86 °FPassing clouds.6 mph70%29.83 "HgN/A
11:00 AM86 °FPassing clouds.7 mph70%29.83 "HgN/A
10:30 AM88 °FPassing clouds.6 mph66%29.83 "HgN/A
10:00 AM84 °FScattered clouds.6 mph70%29.83 "HgN/A
9:30 AM86 °FScattered clouds.6 mph70%29.83 "HgN/A
9:00 AM84 °FScattered clouds.6 mph74%29.83 "HgN/A
8:30 AM86 °FPassing clouds.6 mph66%29.83 "HgN/A
8:00 AM86 °FPassing clouds.5 mph59%29.83 "HgN/A
7:30 AM84 °FPassing clouds.3 mph70%29.83 "HgN/A
7:00 AM84 °FPassing clouds.3 mph70%29.83 "HgN/A
6:30 AM82 °FPassing clouds.5 mph74%29.83 "HgN/A
6:00 AM82 °FPassing clouds.3 mph79%29.83 "HgN/A
5:30 AM81 °FPassing clouds.5 mph84%29.83 "HgN/A
5:00 AM81 °FPassing clouds.6 mph84%29.83 "HgN/A
4:30 AM81 °FPassing clouds.5 mph84%29.83 "HgN/A
4:00 AM81 °FPassing clouds.6 mph84%29.80 "HgN/A
3:30 AM81 °FPassing clouds.5 mph84%29.83 "HgN/A
3:00 AM82 °FPassing clouds.5 mph79%29.83 "HgN/A
2:30 AM81 °FPassing clouds.5 mph89%29.83 "HgN/A
2:00 AM81 °FPassing clouds.6 mph89%29.83 "HgN/A
1:30 AM81 °FPassing clouds.8 mph89%29.83 "HgN/A
1:00 AM81 °FPassing clouds.9 mph89%29.83 "HgN/A
12:30 AM82 °FPassing clouds.9 mph84%29.83 "HgN/A
12:00 AM82 °FPassing clouds.8 mph84%29.86 "HgN/A
11:30 PM
Tue, Aug 4
82 °FPassing clouds.9 mph84%29.86 "HgN/A
11:00 PM82 °FPassing clouds.8 mph84%29.86 "HgN/A
10:30 PM82 °FClear.9 mph84%29.86 "Hg10 mi
10:00 PM82 °FClear.10 mph84%29.86 "Hg10 mi
9:30 PM82 °FClear.10 mph84%29.86 "Hg10 mi
9:00 PM82 °FClear.12 mph84%29.83 "Hg10 mi
8:30 PM82 °FClear.13 mph84%29.83 "Hg10 mi
8:00 PM84 °FClear.15 mph74%29.80 "Hg10 mi
7:30 PM84 °FPassing clouds.14 mph74%29.80 "HgN/A
7:00 PM84 °FPassing clouds.16 mph66%29.80 "HgN/A
Weather by CustomWeather, © 2015

See weather overviewHow to use our weather pages